Weather History for KDGW - December, 2013

Change the Weather History Date:

Wednesday, December 25, 2013

  Actual Average Record
Temperature  
Mean Temperature 21 °F 24 °F  
Max Temperature 36 °F 38 °F 51 °F (1999)
Min Temperature 5 °F 10 °F -7 °F (2012)
Degree Days  
Heating Degree Days 44 41  
Month to date heating degree days 1117 1021  
Since 1 July heating degree days 2854 2843  
Cooling Degree Days 0 0  
Month to date cooling degree days 0 0  
Year to date cooling degree days 739 486  
Moisture  
Dew Point 9 °F    
Average Humidity 63    
Maximum Humidity 80    
Minimum Humidity 46    
Precipitation  
Precipitation 0.00 in 0.01 in 0.22 in (2009)
Month to date precipitation 0.11 0.33  
Year to date precipitation 9.59 13.32  
Sea Level Pressure  
Sea Level Pressure 30.44 in    
Wind  
Wind Speed 5 mph (NW)    
Max Wind Speed 28 mph    
Max Gust Speed 43 mph    
Visibility 10 miles    
Events      
T = Trace of Precipitation, MM = Missing Value Source: NWS Daily Summary

Daily Weather History Graph

Daily Weather History Graph

Search for Another Location

Airport or City:

Trip Planner

Search our weather history database for the weather conditions in past years. The results will help you decide how hot, cold, wet, or windy it might be!

Date:

Astronomy

Dec. 25, 2013 Rise Set
Actual Time 7:30 AM MST 4:32 PM MST
Civil Twilight 6:58 AM MST 5:05 PM MST
Nautical Twilight 6:22 AM MST 5:40 PM MST
Astronomical Twilight 5:48 AM MST 6:15 PM MST
Moon No Moon Rise 11:45 AM MST (12/25)
Length of Visible Light 10h 06m
Length of Day
9h 02m
Waning Gibbous, 48% of the Moon is Illuminated
Dec 25
Waning Gibbous
Jan 1
New
Jan 7
First Quarter
Jan 15
Full
Jan 23
Last Quarter

Hourly Weather History & Observations

Time (MST) Temp. Windchill Dew Point Humidity Pressure Visibility Wind Dir Wind Speed Gust Speed Precip Events Conditions
12:53 AM 21.0 °F 8.1 °F 10.9 °F 65% 30.40 in 10.0 mi NW 13.8 mph - N/A   Clear
1:53 AM 15.1 °F 3.3 °F 7.0 °F 70% 30.45 in 10.0 mi NNW 9.2 mph - N/A   Clear
2:53 AM 12.0 °F 2.7 °F 6.1 °F 77% 30.48 in 10.0 mi NW 5.8 mph - N/A   Clear
3:53 AM 10.0 °F -0.9 °F 3.0 °F 73% 30.49 in 10.0 mi North 6.9 mph - N/A   Clear
4:53 AM 8.1 °F 1.4 °F 3.0 °F 80% 30.53 in 10.0 mi NW 3.5 mph - N/A   Clear
5:53 AM 10.0 °F - 3.0 °F 73% 30.54 in 10.0 mi Calm Calm - N/A   Clear
6:53 AM 7.0 °F - 1.9 °F 80% 30.58 in 10.0 mi Calm Calm - N/A   Clear
7:53 AM 7.0 °F - 1.0 °F 77% 30.60 in 10.0 mi Calm Calm - N/A   Clear
8:53 AM 10.9 °F 4.7 °F 5.0 °F 77% 30.61 in 10.0 mi ESE 3.5 mph - N/A   Clear
9:53 AM 18.0 °F - 9.0 °F 68% 30.59 in 10.0 mi Calm Calm - N/A   Clear
10:53 AM 21.0 °F - 10.0 °F 63% 30.55 in 10.0 mi Calm Calm - N/A   Clear
11:53 AM 24.1 °F - 10.9 °F 57% 30.50 in 10.0 mi Calm Calm - N/A   Clear
12:53 PM 26.1 °F - 12.9 °F 58% 30.41 in 10.0 mi Calm Calm - N/A   Clear
1:53 PM 25.0 °F 20.7 °F 12.9 °F 60% 30.43 in 10.0 mi SSE 3.5 mph - N/A   Clear
2:53 PM 25.0 °F 18.1 °F 14.0 °F 63% 30.41 in 10.0 mi South 5.8 mph - N/A   Clear
3:53 PM 21.9 °F 13.4 °F 12.9 °F 68% 30.41 in 10.0 mi SW 6.9 mph - N/A   Clear
4:53 PM 19.9 °F - 10.9 °F 68% 30.40 in 10.0 mi Calm Calm - N/A   Clear
5:53 PM 17.1 °F - 9.0 °F 71% 30.39 in 10.0 mi Calm Calm - N/A   Clear
6:53 PM 19.0 °F 13.9 °F 10.9 °F 71% 30.39 in 10.0 mi North 3.5 mph - N/A   Clear
7:53 PM 23.0 °F 14.7 °F 10.9 °F 60% 30.36 in 10.0 mi NW 6.9 mph - N/A   Clear
8:53 PM 23.0 °F 17.0 °F 10.9 °F 60% 30.34 in 10.0 mi WNW 4.6 mph - N/A   Clear
9:53 PM 30.9 °F 21.2 °F 12.0 °F 46% 30.28 in 10.0 mi WNW 12.7 mph - N/A   Clear
10:53 PM 28.0 °F 17.5 °F 10.9 °F 49% 30.27 in 10.0 mi WNW 12.7 mph - N/A   Clear
11:53 PM 33.1 °F 22.2 °F 12.0 °F 42% 30.22 in 10.0 mi WNW 17.3 mph 34.5 mph N/A   Clear